This demonstration page uses our WeatherBlox Daily Observations layout. Learn more.

41.55636, -103.73856

Hourly Observations for September 27, 2020

Temp ( °F °C ) Dew Point ( °F °C ) Humidity (%) Winds ( mph kmh ) Pressure ( in mb ) Visibility ( mi km ) Precip ( " mm )
12:58 am 00:58 Partly Cloudy 49 9.6 42 5.6 76 76 SSW 5 7 29.88 1012 10 16.0934 0 0
1:58 am 01:58 Mostly Cloudy 46 7.8 40 4.7 81 81 WSW 6 9 29.9 1012 10 16.0934 0 0
2:58 am 02:58 Mostly Cloudy 48 8.9 40 4.3 73 73 Calm 29.89 1012 10 16.0934 0 0
3:58 am 03:58 Mostly Cloudy 46 7.8 39 4.1 78 78 SW 6 9 29.92 1013 10 16.0934 0 0
4:58 am 04:58 Partly Cloudy 45 7.4 39 3.8 78 78 NW 3 6 29.97 1015 10 16.0934 0 0
5:58 am 05:58 Mostly Cloudy 47 8.1 36 2.3 67 67 N 12 19 30.04 1017 10 16.0934 0 0
6:58 am 06:58 Mostly Cloudy 46 7.7 33 0.8 62 62 N 26 43 30.09 1019 10 16.0934 0 0
7:58 am 07:58 Mostly Cloudy 43 6.2 34 1.2 71 71 N 12 19 30.16 1022 10 16.0934 0 0
8:58 am 08:58 Cloudy with Drizzle 43 6.2 37 2.9 80 80 NW 13 20 30.19 1023 10 16.0934 0 0
9:58 am 09:58 Mostly Cloudy 44 6.4 38 3.6 82 82 WNW 7 11 30.17 1022 10 16.0934 0.01 0.254
10:58 am 10:58 Mostly Sunny 49 9.3 37 2.9 65 65 NW 17 28 30.17 1022 10 16.0934 0 0
11:58 am 11:58 Partly Cloudy 51 10.5 32 -0.1 48 48 NNW 23 37 30.16 1022 10 16.0934 0 0
12:58 pm 12:58 Mostly Cloudy 54 12.2 28 -2.4 36 36 NNW 24 39 30.15 1021 10 16.0934 0 0
1:58 pm 13:58 Mostly Cloudy 58 14.3 22 -5.3 26 26 N 24 39 30.14 1021 10 16.0934 0 0
2:58 pm 14:58 Partly Cloudy 56 13.3 22 -5.5 27 27 NNW 26 43 30.15 1021 10 16.0934 0 0
3:58 pm 15:58 Mostly Cloudy 55 12.7 22 -5.5 28 28 NNW 24 39 30.18 1022 10 16.0934 0 0
4:58 pm 16:58 Partly Cloudy 56 13.2 22 -5.4 27 27 NNW 23 37 30.17 1022 10 16.0934 0 0
5:58 pm 17:58 Partly Cloudy 52 11.3 24 -4.7 33 33 N 20 31 30.23 1024 10 16.0934 0 0
6:58 pm 18:58 Clear 48 8.7 24 -4.7 39 39 NNW 16 26 30.27 1025 10 16.0934 0 0
7:58 pm 19:58 Mostly Clear 45 7.1 28 -2.3 52 52 WNW 12 19 30.3 1026 10 16.0934 0 0
8:58 pm 20:58 Clear 43 5.9 28 -2.4 56 56 NW 15 24 30.34 1028 10 16.0934 0 0
9:58 pm 21:58 Clear 41 5.1 28 -2 60 60 NW 16 26 30.36 1028 10 16.0934 0 0
10:58 pm 22:58 Mostly Cloudy 39 3.9 31 -0.8 72 72 NW 13 20 30.36 1028 10 16.0934 0 0

Powered by AerisWeather